sat.trackr.live / text

‹ back to catalog

STARLINK-3659

NORAD 52001 · 2022-025AX

PAYLOAD ACTIVE UNKNOWN

§ Identity

Operator
Country
US
Launch date
2022-03-09
Launch site
AFETR
Launch vehicle
Mass (kg)
RCS (m²)

Purposes: comms

External: N2YO · Heavens-Above · Gunter

§ Orbital elements

Epoch: 2026-05-25T00:05:42.232128Z

Period
95.44 min
Inclination
53.2133°
Eccentricity
0.0001274
Mean motion
15.08877302 rev/d
Perigee alt
538.7 km
Apogee alt
540.5 km
Semi-major
6,917.8 km
B*
-5.0143e-4
RAAN
36.5413°
Arg perigee
91.7996°
Mean anomaly
268.3142°
Rev number
23,244

§ Raw data

STARLINK-36591 52001U 22025AX  26145.00396102 -.00008268  00000+0 -50143-3 0  99992 52001  53.2133  36.5413 0001274  91.7996 268.3142 15.08877302232446

JSON: /api/v1/satellites/52001 · /tle

For live sub-satellite position, see the globe view (requires WebGL).

§ Visibility from observer

Set your observer location to see the next 7 days of passes ≥ 10°. The values pass through the URL so the page stays shareable.

No JS? Fill the form by hand. The geolocation button needs JavaScript.